Wind_Speed
75 73 74 71 71 71 70 65 64 63 63 60 53 49 47 44 38 34 32 32 35 38 37 33 29 33 34 40 41 48 53 54 49 46 49 53 55 53 52 54 57 56 54 51 49 48 46 42 39 34 30 27 24 21
74 70 68 69 69 65 66 68 65 63 59 56 53 48 44 38 34 33 35 40 39 33 29 29 31 36 38 39 47 51 51 45 42 44 49 51 51 50 50 53 56 58 59 57 54 51 48 44 42 38 34 30 25 23
70 69 70 70 70 71 69 66 62 60 58 55 50 46 41 35 36 38 38 36 33 29 28 30 35 33 36 45 47 46 42 37 39 43 47 47 48 48 48 51 55 59 60 61 60 57 54 51 46 43 39 34 31 29
69 69 69 72 69 68 67 65 63 59 55 49 44 41 40 38 37 37 36 34 32 30 31 36 32 37 43 46 48 42 34 34 37 41 41 44 45 46 47 49 54 58 59 60 61 60 56 51 49 45 43 41 37 33
68 70 71 72 69 66 61 57 56 51 46 43 39 42 40 39 41 40 34 33 33 36 34 35 36 41 41 42 43 32 29 33 35 37 39 41 43 45 47 50 53 56 58 60 62 62 62 58 52 50 46 43 40 36
68 68 68 68 65 60 58 52 51 46 46 44 45 42 39 39 39 38 39 36 34 30 33 36 37 41 42 46 33 26 28 30 34 36 37 39 41 44 47 50 54 57 58 61 64 65 66 65 60 53 50 46 41 38
66 65 64 61 57 55 54 54 53 47 47 42 36 39 43 44 39 38 35 31 32 34 37 39 39 40 46 36 25 23 26 29 32 35 36 38 41 44 47 51 55 57 57 60 63 64 66 66 65 59 53 50 45 42
64 62 62 59 56 53 53 50 51 50 49 44 36 35 38 41 42 40 36 35 33 37 39 40 39 42 39 28 22 23 24 26 30 33 35 36 39 43 46 50 54 56 58 59 62 63 67 69 68 66 62 56 52 46
61 60 59 57 53 53 51 51 50 49 44 44 40 41 42 40 40 40 38 38 38 37 37 40 43 45 32 25 23 24 24 26 30 32 35 37 39 41 44 48 52 55 58 59 62 65 65 69 72 69 66 62 56 51
58 58 54 52 53 53 55 55 52 51 49 49 47 44 44 41 40 41 38 37 38 38 39 42 45 39 29 26 25 25 25 28 30 32 35 37 39 41 44 47 51 53 56 60 62 64 66 68 72 72 70 66 62 57
61 57 55 54 57 58 60 57 55 51 52 50 50 47 45 39 35 32 33 38 40 40 43 46 44 33 30 26 27 26 27 29 32 34 36 40 40 41 43 47 51 52 55 58 62 65 66 69 71 74 73 70 67 61
62 62 59 60 60 60 58 57 55 52 53 51 48 43 37 39 43 37 41 42 42 42 46 43 43 35 30 27 28 28 29 31 34 36 38 41 41 42 44 47 50 52 54 58 61 65 67 69 70 74 76 74 70 65
63 64 62 65 63 63 62 58 55 53 50 48 48 49 46 44 43 43 44 44 44 47 47 44 40 35 31 29 30 31 32 33 36 39 41 41 43 44 45 48 50 52 54 58 60 63 66 70 71 73 78 77 73 71
68 67 65 62 61 60 58 53 52 53 53 51 51 50 49 44 47 47 47 49 51 53 44 46 39 35 32 29 32 33 34 36 38 41 41 41 44 45 46 48 50 52 54 58 60 63 66 69 73 74 78 80 78 74
63 63 64 59 56 57 56 53 50 49 54 53 54 52 51 51 51 48 47 51 50 48 49 46 39 37 33 31 33 35 36 37 40 42 41 43 46 46 46 47 50 52 55 59 62 64 67 70 74 75 78 81 80 78
64 59 59 62 63 61 58 55 56 58 58 50 50 51 50 50 52 51 53 53 50 46 40 39 39 38 35 31 36 37 37 39 43 44 44 45 47 47 47 48 51 54 57 61 63 66 68 73 75 75 79 84 83 80
65 65 63 63 63 59 58 56 55 49 50 52 55 53 54 54 54 54 49 50 46 43 40 38 38 38 36 35 38 36 39 42 47 46 46 46 47 49 50 52 54 56 60 62 64 67 69 71 75 79 81 84 86 83
67 65 65 63 63 64 61 59 53 51 51 55 58 57 56 52 49 48 50 46 44 41 39 38 38 39 38 36 33 35 42 46 47 45 44 45 48 51 52 55 57 60 61 63 65 68 71 74 78 80 82 86 87 83
71 69 68 69 66 60 58 54 50 52 57 59 58 55 52 50 50 47 46 45 42 39 38 39 40 42 37 31 32 36 44 46 44 43 44 46 50 53 57 59 59 61 62 63 66 68 71 74 79 83 85 88 90 87
77 76 71 71 66 61 60 63 58 60 62 66 52 48 46 47 46 46 45 41 39 37 41 43 44 39 33 33 34 40 43 44 44 44 46 51 54 57 60 61 61 62 63 65 67 70 73 77 80 84 87 90 93 90
81 80 74 74 72 70 67 66 59 61 56 50 50 47 48 50 50 46 41 42 40 43 45 47 44 38 33 33 37 44 44 45 46 48 52 55 57 60 62 64 63 64 66 67 70 73 75 79 83 87 91 93 95 92
89 85 83 80 72 72 64 63 56 59 55 53 51 51 54 54 50 45 42 41 45 48 46 42 41 39 36 38 44 45 47 48 50 54 57 59 61 63 66 65 65 67 69 71 73 76 79 82 85 90 93 97 96 94
89 84 80 77 75 70 65 63 61 61 53 50 50 51 51 48 45 43 43 48 50 49 47 46 45 43 44 47 47 49 50 52 56 58 62 64 66 67 68 67 69 71 73 75 77 79 82 85 89 92 96 98 96 94
86 84 81 77 73 73 67 66 58 59 54 55 54 51 50 47 44 42 46 55 54 50 49 48 48 50 50 52 54 55 56 59 61 64 66 67 68 69 69 71 73 75 77 79 81 82 85 88 92 96 99 98 97 95
93 91 85 78 75 74 66 63 61 59 60 60 55 52 53 48 45 43 49 61 60 57 54 52 54 55 56 57 58 59 60 61 63 65 67 68 70 71 72 74 78 79 81 82 83 84 88 91 94 98 100 99 97 95
101 94 86 79 73 73 70 69 68 68 67 65 57 52 56 53 49 46 55 63 60 58 58 58 58 58 59 60 60 62 63 65 67 69 71 73 74 75 76 79 81 82 83 84 86 88 91 94 97 100 100 99 97 95
104 94 86 83 79 76 74 74 73 73 73 68 63 61 57 57 57 55 64 62 60 60 61 60 61 62 62 63 64 66 68 69 71 73 75 76 77 78 80 82 84 85 85 86 88 90 94 97 100 101 100 98 97 94
101 94 92 90 85 82 81 81 81 80 76 72 73 74 70 65 64 71 69 66 63 62 61 61 62 62 63 64 66 68 70 72 74 75 77 78 79 82 83 84 85 86 86 88 91 94 97 100 101 101 99 97 96 90
104 101 99 94 92 89 86 82 80 80 84 87 83 76 70 69 68 72 75 72 71 70 70 69 69 69 69 70 71 73 75 77 79 80 81 82 83 84 84 85 85 86 88 91 94 97 100 101 101 100 98 97 91 88
111 107 101 98 98 95 91 89 91 98 94 89 83 77 72 70 72 71 69 73 78 78 75 74 76 77 77 77 77 77 78 79 81 82 84 85 86 85 84 85 86 89 92 95 98 100 101 101 100 97 97 92 90 84
112 110 107 105 102 99 100 103 104 102 98 94 87 78 74 74 73 70 68 68 69 73 77 80 82 82 83 83 83 83 84 84 85 85 86 85 84 84 86 88 91 94 97 100 101 101 101 101 98 97 94 91 84 79
111 106 103 99 99 100 101 99 99 96 95 93 87 82 79 77 75 75 73 72 72 73 75 75 76 77 76 76 77 78 80 81 82 82 83 84 85 88 91 94 96 99 101 102 102 102 100 98 96 93 90 84 79 75
122 119 113 109 104 103 104 107 106 106 103 98 93 89 86 83 79 80 82 81 83 85 86 86 84 83 82 81 82 84 85 86 87 88 90 92 93 95 97 99 101 102 103 102 101 99 97 94 90 87 82 78 74 71
Wind_Direction
138 141 143 145 149 154 159 161 158 158 156 159 163 168 170 175 179 181 188 205 220 227 234 248 262 269 279 286 298 302 306 308 313 317 322 324 327 333 340 346 351 356 1 2 359 359 355 352 350 347 344 338 331 315
139 142 146 149 153 152 153 151 153 156 159 160 166 168 167 170 176 189 202 214 223 230 246 256 266 274 283 296 299 304 306 311 314 320 321 325 329 338 344 350 355 359 3 7 7 6 4 358 353 350 346 343 336 325
146 146 146 148 151 151 153 156 156 158 160 163 165 165 169 177 191 201 210 218 229 242 245 258 266 281 290 293 302 310 310 311 314 318 322 328 335 342 347 351 357 360 2 5 8 9 7 5 0 353 350 345 340 336
146 148 148 149 151 152 153 156 157 160 162 162 167 173 183 193 201 210 217 226 236 239 250 261 277 286 295 297 303 309 308 311 315 317 325 332 339 344 348 351 355 359 1 3 5 7 8 7 5 1 355 348 343 338
151 150 150 152 151 151 153 155 157 158 163 170 180 184 190 198 209 216 227 232 238 245 259 270 281 285 296 305 310 303 306 310 313 318 326 335 343 346 351 354 355 358 359 2 3 4 6 6 6 5 2 356 348 341
152 153 153 154 154 154 158 160 162 167 176 177 184 191 200 209 214 223 228 232 241 257 267 280 286 290 298 308 302 298 303 307 312 318 327 335 342 347 352 355 356 356 356 359 0 2 2 3 5 4 2 358 353 346
153 154 156 155 157 161 164 169 171 178 177 179 190 204 212 214 216 224 235 247 255 262 272 286 288 296 303 305 291 293 297 305 313 317 325 332 338 344 348 352 355 355 355 356 358 358 0 359 1 3 2 0 356 349
156 159 160 161 163 167 171 177 181 180 184 190 202 212 218 222 225 234 243 249 261 267 274 290 288 301 307 289 285 289 294 303 312 316 319 327 334 341 346 350 352 353 353 354 356 357 358 358 359 359 2 360 358 353
163 164 165 166 171 176 179 182 187 187 193 201 208 216 220 227 236 242 248 259 265 271 281 287 294 300 291 280 279 284 287 298 308 315 318 323 330 337 342 346 348 350 351 351 354 354 355 356 357 356 358 0 357 355
170 170 173 178 182 184 186 185 191 195 201 205 210 219 225 230 238 244 252 259 271 277 281 291 294 296 276 274 275 281 286 295 303 310 314 319 326 333 337 341 344 346 348 349 350 352 352 354 354 355 355 358 357 355
175 178 185 186 186 188 193 197 200 204 208 213 218 223 233 241 250 258 266 270 278 278 276 291 295 282 270 270 272 277 284 292 299 307 311 315 322 329 333 338 340 343 344 347 347 348 349 351 353 353 353 355 355 354
186 185 189 191 194 197 201 205 208 212 215 220 226 233 239 248 251 256 263 265 274 275 284 289 292 272 266 266 270 276 284 291 296 302 307 313 321 326 329 333 337 339 341 341 344 347 347 349 350 350 350 351 353 354
190 192 194 197 199 203 206 210 213 218 224 231 236 238 243 252 257 260 266 269 275 280 288 283 286 264 261 262 268 276 283 290 295 299 304 313 318 322 326 330 333 336 337 337 341 343 344 346 346 348 349 349 349 352
192 194 198 201 206 211 212 216 222 227 232 236 239 246 249 256 256 259 264 268 268 284 277 286 275 259 257 261 267 274 283 290 293 297 304 312 316 319 323 327 329 333 335 336 337 339 342 342 344 345 347 347 346 348
201 204 207 208 213 217 221 223 224 229 235 240 246 252 250 254 255 262 271 273 278 280 282 282 270 256 256 258 267 272 280 287 292 296 304 311 313 315 320 323 326 331 333 335 337 336 339 340 343 343 344 344 344 344
206 209 213 216 221 223 225 228 234 240 246 242 247 246 249 254 266 272 275 274 276 277 278 273 261 255 255 257 263 269 276 283 288 295 302 307 308 312 317 319 322 326 330 332 334 335 336 337 340 341 341 342 341 341
212 214 217 217 221 226 230 233 237 240 244 248 253 256 255 266 270 269 274 277 279 273 268 263 255 256 256 256 261 270 278 283 287 293 299 302 304 309 315 316 318 323 327 328 330 332 333 335 337 338 338 341 339 340
216 219 218 223 226 228 234 235 243 249 251 252 257 258 263 269 271 270 271 272 273 267 263 258 257 257 258 260 271 277 280 282 287 292 297 299 301 307 311 313 317 321 324 326 328 329 331 333 335 337 336 338 337 338
220 222 225 226 230 231 240 245 246 251 248 252 261 264 265 265 265 269 265 265 262 261 264 262 260 257 262 271 275 277 279 283 288 292 297 298 301 306 308 312 315 318 320 323 325 327 329 331 332 334 335 337 335 337
224 226 228 233 234 238 246 248 250 255 255 258 260 263 265 263 266 267 262 256 257 262 261 259 260 265 268 272 275 276 278 284 288 294 296 297 301 303 306 310 313 314 318 322 324 326 328 330 331 332 333 334 333 335
227 229 232 236 238 241 246 249 252 259 257 260 262 263 267 267 272 267 254 249 253 255 257 259 264 269 270 272 273 274 280 284 289 290 291 295 298 301 304 308 309 311 315 318 322 324 327 328 330 329 332 332 332 332
232 233 234 236 239 246 248 251 256 248 257 264 266 271 271 269 266 256 247 246 249 250 252 257 261 264 268 268 268 273 277 282 286 288 292 295 297 299 302 305 306 308 312 315 319 322 325 326 327 328 330 330 331 330
235 237 238 239 240 243 246 251 258 257 266 265 273 272 266 259 252 249 243 246 248 249 254 257 259 262 264 267 270 273 278 282 284 289 291 294 297 298 301 302 304 306 310 314 317 319 322 324 324 327 328 329 328 328
236 238 238 238 243 248 251 255 257 259 259 261 273 274 263 254 253 250 243 247 249 251 252 255 258 260 263 267 271 275 278 281 285 288 291 293 296 297 300 301 303 306 309 312 314 317 319 321 323 325 326 327 326 327
236 237 240 242 247 249 250 253 254 255 257 263 269 273 263 253 251 252 246 248 249 251 255 257 260 263 266 270 273 276 279 282 284 287 289 292 294 296 299 301 302 306 308 309 312 315 316 319 321 323 325 324 325 325
235 238 240 241 241 246 249 248 251 254 256 263 265 269 261 256 255 252 250 250 251 254 256 259 262 265 269 272 275 277 280 282 284 287 289 291 293 295 298 299 301 304 306 308 311 313 315 319 319 322 322 322 322 323
236 238 239 241 244 244 244 248 252 254 259 260 259 265 268 267 258 255 254 254 255 257 261 264 266 268 271 273 276 278 281 283 285 287 288 291 293 295 296 298 300 302 304 306 309 311 314 316 318 319 319 320 320 322
235 236 240 242 241 242 245 247 251 256 256 256 259 264 264 267 261 255 257 259 260 261 263 265 268 270 274 277 278 280 282 284 286 287 289 292 294 295 296 298 300 302 303 305 307 310 313 315 316 316 317 318 319 321
238 241 240 243 245 246 248 250 253 255 253 256 261 263 264 262 262 259 256 257 260 262 264 266 269 272 274 276 278 280 282 284 285 287 289 291 293 295 297 298 299 300 302 304 307 309 311 313 314 315 317 317 320 321
238 239 240 242 245 246 249 250 248 253 258 260 261 263 263 262 262 261 262 262 262 264 266 268 270 272 274 276 278 280 282 283 284 286 289 291 293 295 296 297 299 300 302 305 306 308 311 311 312 314 315 317 319 318
238 240 242 244 244 246 248 250 253 254 256 258 258 258 260 259 260 262 263 264 265 266 268 270 271 272 273 275 277 279 280 282 284 286 288 290 292 293 295 297 298 300 303 304 306 308 309 310 312 312 314 315 316 316
237 239 242 243 245 246 247 248 250 252 254 253 255 257 259 259 259 260 262 263 265 267 267 268 269 270 273 275 277 279 281 283 284 286 288 290 292 294 295 296 299 300 302 303 305 306 308 309 310 311 313 314 314 312
238 239 240 241 242 244 247 248 250 253 254 253 255 257 258 257 259 260 261 262 263 264 266 268 270 273 275 277 279 279 281 282 284 286 288 289 291 293 294 296 298 299 301 302 304 305 307 308 309 309 311 311 310 308
Height
10206 10222 10237 10252 10269 10285 10300 10317 10332 10348 10363 10378 10391 10403 10414 10424 10433 10442 10450 10458 10464 10468 10472 10475 10477 10477 10477 10476 10472 10467 10461 10454 10448 10443 10435 10427 10418 10407 10395 10384 10372 10359 10345 10331 10318 10306 10295 10286 10279 10272 10265 10259 10254 10250
10222 10235 10249 10263 10278 10293 10309 10324 10339 10355 10367 10379 10392 10403 10414 10423 10433 10441 10450 10455 10460 10464 10468 10470 10470 10470 10469 10467 10464 10458 10453 10446 10441 10436 10429 10421 10412 10402 10390 10381 10369 10356 10344 10331 10319 10308 10298 10288 10279 10271 10264 10258 10253 10248
10236 10247 10261 10276 10289 10302 10317 10331 10345 10358 10370 10382 10393 10404 10413 10424 10433 10440 10447 10451 10456 10460 10462 10463 10464 10464 10462 10460 10456 10451 10444 10439 10435 10430 10423 10415 10406 10397 10388 10378 10368 10355 10344 10333 10322 10311 10300 10288 10278 10270 10263 10256 10250 10244
10248 10259 10271 10284 10297 10310 10324 10337 10350 10362 10373 10383 10394 10405 10416 10424 10431 10437 10442 10447 10451 10454 10456 10457 10457 10456 10454 10452 10448 10442 10437 10434 10430 10425 10418 10411 10402 10393 10385 10376 10366 10355 10346 10335 10324 10314 10304 10294 10283 10272 10261 10252 10246 10240
10258 10269 10281 10292 10304 10317 10330 10342 10354 10365 10376 10387 10397 10407 10416 10422 10428 10434 10438 10442 10445 10447 10450 10450 10451 10449 10448 10444 10439 10434 10431 10429 10425 10420 10414 10407 10399 10391 10382 10373 10364 10354 10346 10336 10325 10314 10303 10293 10283 10273 10263 10254 10245 10238
10269 10279 10291 10301 10313 10324 10335 10346 10358 10369 10378 10388 10398 10406 10413 10418 10424 10428 10431 10435 10438 10441 10443 10444 10443 10441 10438 10435 10430 10427 10425 10422 10419 10414 10409 10403 10396 10388 10380 10373 10363 10353 10343 10332 10322 10312 10302 10292 10283 10274 10264 10255 10246 10237
10276 10287 10298 10308 10318 10328 10339 10350 10359 10370 10380 10389 10397 10402 10407 10412 10416 10421 10426 10429 10432 10435 10436 10437 10435 10432 10429 10425 10423 10422 10420 10416 10413 10409 10403 10398 10391 10385 10377 10368 10360 10351 10343 10333 10323 10313 10303 10293 10283 10273 10264 10255 10245 10235
10283 10293 10302 10311 10321 10331 10341 10351 10360 10369 10378 10386 10392 10398 10403 10406 10411 10417 10420 10424 10427 10428 10430 10429 10426 10423 10419 10417 10416 10416 10414 10411 10409 10404 10399 10395 10388 10381 10374 10365 10358 10349 10341 10331 10323 10313 10301 10291 10281 10271 10262 10252 10243 10234
10288 10297 10305 10314 10323 10332 10341 10350 10359 10367 10374 10380 10386 10391 10396 10401 10407 10410 10415 10418 10420 10421 10421 10419 10417 10414 10411 10409 10409 10409 10407 10406 10403 10399 10394 10389 10384 10378 10371 10363 10355 10347 10339 10329 10320 10309 10301 10292 10280 10269 10260 10250 10240 10230
10291 10299 10307 10315 10322 10332 10341 10348 10355 10363 10370 10375 10381 10386 10391 10396 10400 10405 10408 10410 10411 10411 10411 10410 10406 10404 10402 10402 10402 10402 10400 10399 10397 10394 10389 10385 10379 10373 10367 10360 10352 10345 10336 10327 10317 10309 10299 10289 10278 10267 10256 10246 10237 10228
10288 10297 10306 10314 10323 10331 10338 10345 10352 10359 10365 10371 10376 10382 10387 10390 10394 10397 10399 10401 10402 10402 10401 10400 10398 10396 10394 10395 10394 10394 10394 10393 10391 10388 10384 10379 10374 10369 10363 10356 10348 10341 10333 10325 10315 10306 10296 10286 10275 10265 10254 10244 10234 10225
10289 10296 10304 10313 10321 10329 10336 10342 10348 10354 10360 10367 10372 10377 10380 10383 10387 10390 10391 10392 10392 10392 10391 10391 10389 10387 10387 10386 10387 10387 10387 10386 10384 10381 10377 10373 10368 10363 10357 10351 10344 10336 10329 10321 10313 10303 10292 10282 10272 10262 10251 10241 10231 10220
10286 10294 10302 10309 10317 10323 10329 10337 10345 10351 10355 10360 10365 10369 10373 10376 10379 10380 10381 10382 10383 10381 10383 10382 10380 10379 10378 10378 10379 10379 10379 10379 10377 10374 10370 10367 10362 10356 10351 10345 10339 10332 10324 10316 10308 10299 10289 10277 10268 10258 10247 10235 10225 10215
10281 10289 10297 10305 10312 10319 10326 10332 10337 10343 10348 10353 10357 10361 10366 10367 10368 10370 10372 10372 10372 10372 10372 10372 10370 10370 10369 10370 10370 10371 10371 10371 10368 10365 10363 10359 10355 10349 10344 10339 10332 10327 10320 10311 10302 10294 10284 10274 10262 10251 10241 10229 10219 10209
10279 10286 10293 10299 10305 10311 10317 10323 10328 10334 10339 10345 10348 10352 10354 10355 10358 10360 10361 10362 10362 10361 10360 10360 10360 10360 10360 10360 10361 10362 10362 10362 10359 10357 10355 10351 10346 10342 10338 10333 10326 10320 10313 10306 10297 10287 10278 10268 10258 10246 10236 10225 10213 10202
10272 10279 10285 10290 10296 10302 10308 10314 10320 10326 10331 10335 10337 10339 10342 10345 10347 10348 10348 10349 10349 10348 10348 10348 10349 10350 10350 10352 10351 10352 10353 10351 10349 10348 10346 10343 10338 10334 10330 10325 10319 10313 10306 10298 10290 10282 10272 10259 10252 10242 10229 10218 10207 10196
10260 10267 10272 10278 10285 10291 10298 10304 10310 10316 10321 10322 10324 10327 10331 10333 10333 10334 10334 10335 10335 10335 10336 10337 10338 10340 10339 10341 10340 10343 10342 10341 10338 10338 10337 10334 10328 10324 10321 10316 10311 10304 10297 10290 10282 10274 10265 10258 10247 10233 10224 10214 10198 10186
10246 10253 10260 10266 10274 10281 10287 10294 10300 10306 10308 10307 10313 10316 10319 10320 10319 10320 10320 10322 10323 10324 10325 10326 10327 10328 10329 10329 10333 10334 10330 10328 10327 10327 10326 10323 10318 10315 10311 10305 10300 10294 10287 10280 10272 10264 10255 10245 10235 10227 10215 10204 10192 10183
10233 10241 10248 10254 10262 10271 10278 10285 10290 10293 10293 10295 10300 10304 10305 10306 10306 10307 10308 10309 10311 10313 10315 10314 10315 10313 10319 10323 10323 10322 10317 10315 10316 10317 10316 10312 10308 10305 10300 10294 10290 10284 10277 10270 10263 10255 10247 10237 10225 10215 10205 10194 10182 10171
10220 10230 10237 10246 10254 10261 10267 10274 10275 10278 10282 10283 10286 10290 10291 10292 10293 10295 10297 10298 10301 10303 10302 10300 10300 10306 10311 10312 10311 10307 10305 10305 10305 10306 10304 10300 10296 10293 10289 10284 10278 10272 10265 10258 10251 10243 10234 10224 10215 10203 10193 10183 10170 10160
10207 10215 10224 10233 10238 10247 10255 10258 10262 10264 10265 10269 10271 10275 10277 10279 10280 10282 10284 10288 10291 10288 10287 10287 10292 10297 10300 10301 10297 10293 10294 10294 10295 10294 10291 10289 10286 10282 10276 10272 10266 10260 10253 10246 10238 10230 10222 10213 10203 10191 10180 10169 10157 10145
10192 10201 10209 10217 10225 10234 10239 10243 10247 10248 10250 10253 10256 10260 10262 10264 10266 10269 10273 10277 10273 10272 10275 10280 10283 10285 10289 10287 10283 10283 10283 10283 10282 10279 10277 10275 10273 10269 10265 10260 10254 10247 10241 10233 10225 10217 10208 10200 10190 10178 10167 10154 10143 10130
10170 10182 10193 10202 10210 10218 10224 10229 10232 10235 10238 10240 10242 10245 10247 10249 10253 10257 10263 10259 10257 10261 10266 10269 10272 10274 10273 10271 10271 10271 10272 10271 10268 10267 10263 10261 10259 10254 10250 10246 10239 10233 10226 10219 10212 10203 10195 10186 10176 10166 10153 10142 10130 10119
10154 10162 10174 10184 10195 10203 10211 10215 10217 10219 10224 10225 10227 10230 10233 10238 10242 10247 10251 10242 10243 10249 10252 10257 10259 10258 10258 10257 10258 10258 10257 10257 10254 10252 10248 10246 10242 10239 10235 10230 10223 10217 10211 10205 10197 10188 10180 10171 10161 10149 10138 10128 10115 10105
10131 10140 10155 10171 10181 10191 10198 10200 10202 10204 10209 10209 10213 10218 10221 10225 10231 10235 10237 10225 10230 10236 10240 10242 10242 10243 10244 10244 10244 10244 10243 10241 10239 10237 10232 10231 10227 10223 10218 10213 10206 10201 10194 10188 10182 10174 10166 10156 10146 10135 10123 10110 10100 10090
10111 10127 10143 10156 10166 10173 10180 10181 10183 10186 10188 10195 10202 10205 10206 10212 10219 10226 10216 10209 10219 10223 10225 10226 10227 10229 10229 10230 10230 10228 10227 10226 10224 10221 10217 10215 10211 10207 10202 10196 10190 10185 10178 10171 10164 10156 10148 10139 10128 10118 10106 10095 10084 10074
10093 10117 10131 10140 10150 10155 10161 10163 10165 10167 10173 10179 10183 10187 10192 10199 10207 10208 10193 10199 10205 10209 10210 10212 10213 10213 10213 10213 10214 10211 10210 10209 10207 10204 10201 10197 10194 10190 10184 10179 10173 10167 10162 10153 10147 10139 10131 10122 10111 10100 10089 10078 10067 10058
10084 10099 10112 10120 10128 10134 10141 10146 10147 10149 10157 10161 10163 10168 10175 10182 10186 10181 10183 10189 10193 10194 10195 10195 10196 10196 10197 10197 10197 10195 10193 10191 10189 10186 10183 10179 10176 10171 10167 10161 10154 10148 10142 10136 10128 10121 10112 10104 10094 10083 10073 10062 10052 10040
10065 10081 10089 10098 10108 10117 10125 10131 10134 10135 10131 10132 10143 10150 10158 10161 10166 10165 10168 10173 10174 10175 10177 10178 10180 10180 10180 10179 10178 10177 10175 10172 10169 10166 10163 10160 10156 10151 10147 10141 10136 10130 10123 10117 10110 10103 10094 10085 10074 10063 10053 10042 10034 10024
10047 10059 10072 10082 10091 10101 10109 10109 10106 10099 10108 10117 10125 10135 10142 10143 10142 10148 10154 10156 10157 10157 10159 10160 10160 10159 10160 10160 10159 10157 10156 10152 10149 10146 10143 10139 10135 10132 10127 10121 10116 10109 10103 10097 10090 10082 10073 10063 10053 10044 10034 10024 10015 10006
10025 10036 10049 10062 10071 10078 10083 10079 10079 10085 10090 10097 10106 10116 10122 10124 10128 10133 10137 10137 10136 10137 10138 10137 10136 10136 10137 10138 10139 10137 10133 10131 10129 10126 10123 10119 10116 10112 10106 10101 10095 10088 10082 10075 10068 10060 10052 10041 10032 10023 10014 10005 9996 9989
10001 10015 10028 10040 10049 10052 10055 10058 10057 10062 10067 10074 10086 10096 10102 10106 10113 10116 10117 10117 10117 10116 10113 10113 10113 10113 10116 10118 10117 10115 10111 10108 10106 10104 10101 10099 10095 10090 10085 10080 10075 10068 10061 10054 10047 10039 10030 10022 10013 10003 9995 9987 9980 9972
9983 9991 10002 10010 10020 10026 10030 10027 10032 10038 10046 10056 10066 10074 10079 10085 10095 10094 10093 10095 10092 10089 10089 10091 10094 10097 10098 10098 10096 10092 10089 10087 10085 10084 10080 10076 10073 10069 10064 10058 10052 10045 10039 10032 10025 10016 10008 10000 9992 9984 9976 9969 9962 9956